Flag for U.S.A. Weather past 2 weeks in Billings, Montana, U.S.A.

Now
41 °F

Passing clouds.


Feels Like: 32 °F
Forecast: 38 / 63 °F
Wind: 17 mph from Southwest

Location: Billings Logan International Airport

Current Time: Apr 18, 2015 at 7:35:05 AM

Latest Report: Apr 18, 2015 at 6:53 AM


Visibility: 10 mi

Pressure: 29.98 "Hg

Humidity: 65%

Dew point: 30 °F

Location of BillingsLocation

Historic Weather in Billings — Graph

°F

Billings temperature yesterday

Maximum temperature yesterday: 65 °F (at 3:53 PM)
Minimum temperature yesterday: 34 °F (at 4:53 AM)
Average temperature yesterday: 51 °F

Past Weeks' High & Low Weather Summary

 TemperatureHumidityPressure
High79 °F (Apr 14, 3:53 PM)100% (Apr 6, 4:53 AM)30.35 "Hg (Apr 6, 4:53 AM)
Low27 °F (Apr 3, 5:53 AM)8% (Apr 14, 3:53 PM)29.35 "Hg (Apr 14, 6:53 PM)
Average45 °F49%29.96 "Hg
* Reported Apr 3 5:53 AM — Apr 18 5:53 AM, Billings, Weather by CustomWeather, © 2015

Note: Actual official high and low records may vary slightly from our data, if they occured in-between our weather recording intervals... More about our weather records

Advertising

Billings weather history for previous 24 hours

 ConditionsComfort  
Time TempWeatherWind HumidityBarometerVisibility
5:53 AM
Sat, Apr 18
41 °FPassing clouds.14 mph67%29.96 "Hg10 mi
4:53 AM40 °FClear.12 mph73%29.95 "Hg10 mi
3:53 AM44 °FClear.10 mph63%29.95 "Hg10 mi
2:53 AM43 °FClear.14 mph68%29.96 "Hg10 mi
1:53 AM43 °FClear.9 mph71%29.98 "Hg10 mi
12:53 AM46 °FClear.8 mph63%29.99 "Hg10 mi
11:53 PM
Fri, Apr 17
51 °FClear.No wind48%29.98 "Hg10 mi
10:53 PM54 °FClear.6 mph43%30.00 "Hg10 mi
9:53 PM58 °FClear.5 mph33%30.01 "Hg10 mi
8:53 PM59 °FSunny.7 mph33%30.03 "Hg10 mi
7:53 PM61 °FSunny.8 mph31%30.03 "Hg10 mi
6:53 PM63 °FSunny.7 mph29%30.04 "Hg10 mi
5:53 PM64 °FSunny.6 mph27%30.04 "Hg10 mi
4:53 PM65 °FSunny.6 mph24%30.05 "Hg10 mi
3:53 PM65 °FSunny.8 mph25%30.08 "Hg10 mi
2:53 PM63 °FSunny.3 mph22%30.11 "Hg10 mi
1:53 PM61 °FPassing clouds.6 mph23%30.13 "Hg10 mi
12:53 PM60 °FSunny.3 mph32%30.15 "Hg10 mi
11:53 AM58 °FSunny.8 mph41%30.18 "Hg10 mi
10:53 AM53 °FSunny.9 mph48%30.20 "Hg10 mi
9:53 AM49 °FSunny.12 mph55%30.22 "Hg10 mi
8:53 AM43 °FSunny.14 mph65%30.24 "Hg10 mi
7:53 AM37 °FSunny.10 mph73%30.26 "Hg10 mi
Weather by CustomWeather, © 2015

See weather overviewHow to use our weather pages